Regional Weather Roundup
Issued by NWS

Home | Current Version | Previous Version | Text Only | Print | Product List | Glossary On
Versions: 1 2 3 4 5 6 7 8 9 10 11 12 13 14 15 16 17 18 19 20 21 22 23 24 25 26 27 28 29 30 31 32 33 34 35 36 37 38 39 40 41 42 43 44 45 46 47 48 49 50
000
ASUS44 KOUN 010610
RWROK

WEATHER ROUNDUP FOR OKLAHOMA
NATIONAL WEATHER SERVICE NORMAN OK
100 AM CDT TUE SEP 01 2015

NOTE: "FAIR" INDICATES FEW OR NO CLOUDS BELOW 12,000 FEET WITH NO
      SIGNIFICANT WEATHER AND/OR OBSTRUCTIONS TO VISIBILITY.

OKZ001>007-009>012-014-015-017-010700-
NORTHWEST OKLAHOMA AND THE PANHANDLE

CITY           SKY/WX    TMP DP  RH WIND       PRES   REMARKS
GAGE           FAIR      75  59  57 S16       30.00R
6HR MIN TEMP:  75; 6HR MAX TEMP:  91; 6HR PCP: TRACE;

GUYMON         FAIR      69  52  54 SW7       30.01R
ENID/WOODRING  FAIR      73  63  68 S5        29.99R
$$

OKZ016-021>023-033>039-044-045-010700-
SOUTHWEST OKLAHOMA

CITY           SKY/WX    TMP DP  RH WIND       PRES   REMARKS
LAWTON/REGL    FAIR      78  62  57 SE8       30.00R
6HR MIN TEMP:  78; 6HR MAX TEMP:  93;

LAWTON/FT SILL FAIR      78  64  61 SE12      29.99R
FREDERICK      FAIR      77  64  64 SE9       29.96R
CLINTON        FAIR      78  60  53 S14       30.03R
HOBART         FAIR      80  61  52 S15       30.01R
ALTUS AFB      CLEAR     76  62  62 SE10      29.99R
$$

OKZ018>020-024>031-010700-
CENTRAL OKLAHOMA

CITY           SKY/WX    TMP DP  RH WIND       PRES   REMARKS
OKLAHOMA CITY  FAIR      74  64  71 SE8       30.02R
6HR MIN TEMP:  74; 6HR MAX TEMP:  89;

OKC/WILEY POST FAIR      78  62  57 S16       30.01S
OKC/TINKER AFB FAIR      76  64  67 S12       30.02R
STILLWATER     FAIR      75  64  68 S8        30.00R
GUTHRIE        FAIR      77  63  61 S10       30.00S
$$

OKZ008-013-054>072-010700-
NORTHEAST OKLAHOMA

CITY           SKY/WX    TMP DP  RH WIND       PRES   REMARKS
TULSA          FAIR      79  71  76 S8        30.00R
6HR MIN TEMP:  77; 6HR MAX TEMP:  89;

TULSA/JONES    FAIR      71  69  93 CALM      30.02R
PONCA CITY     FAIR      80  65  59 S8        29.99R
BARTLESVILLE   FAIR      74  72  93 S6        30.01S
MUSKOGEE       FAIR      73  69  87 S5        30.04R
$$

OKZ032-040>043-046>053-073>077-010700-
SOUTH CENTRAL/SOUTHEAST OKLAHOMA

CITY           SKY/WX    TMP DP  RH WIND       PRES   REMARKS
ARDMORE/DWNTWN FAIR      73  63  68 CALM      30.01S
MCALESTER      MOCLDY    75  66  73 CALM      30.04R
$$



USA.gov is the U.S. government's official web portal to all federal, state and local government web resources and services.